Weather History for Borden, ON

Change the Weather History Date:

Tuesday, October 15, 2013

  Actual Average Record
Temperature  
Mean Temperature 46 °F -  
Max Temperature 62 °F 48 °F 64 °F (2012)
Min Temperature 29 °F 33 °F 24 °F (2002)
Degree Days  
Heating Degree Days 20    
Moisture  
Dew Point 39 °F    
Average Humidity 94    
Maximum Humidity 100    
Minimum Humidity 62    
Precipitation  
Precipitation 0.02 in - - ()
Sea Level Pressure  
Sea Level Pressure 30.21 in    
Wind  
Wind Speed 2 mph ()    
Max Wind Speed 12 mph    
Max Gust Speed -    
Visibility 5.2 miles    
Events      
Averages and records for this station are not official NWS values.
T = Trace of Precipitation, MM = Missing Value Source: Averaged Metar Reports

Daily Weather History Graph

Daily Weather History Graph

Search for Another Location

Airport:

Trip Planner

Search our weather history database for the weather conditions in past years. The results will help you decide how hot, cold, wet, or windy it might be!

Date:

Astronomy

Oct. 15, 2013 Rise Set
Actual Time 7:34 AM EDT 6:35 PM EDT
Civil Twilight 7:05 AM EDT 7:04 PM EDT
Nautical Twilight 6:32 AM EDT 7:37 PM EDT
Astronomical Twilight 5:58 AM EDT 8:11 PM EDT
Moon 4:45 PM EDT (10/15) 3:48 AM EDT (10/15)
Length of Visible Light 11h 58m
Length of Day
11h 00m
Waxing Gibbous, 87% of the Moon is Illuminated
Oct 15
Waxing Gibbous
Oct 18
Full
Oct 26
Last Quarter
Nov 3
New
Nov 10
First Quarter

Hourly Weather History & Observations

Time (EDT) Temp. Windchill Dew Point Humidity Pressure Visibility Wind Dir Wind Speed Gust Speed Precip Events Conditions
12:00 AM 35.6 °F - 35.6 °F 100% 30.33 in 9.0 mi South 2.3 mph - N/A   Clear
12:54 AM 37.4 °F - 35.6 °F 93% 30.30 in 1.1 mi SW 2.3 mph - N/A   Clear
12:56 AM 37.4 °F - 35.6 °F 93% 30.30 in 1.0 mi SW 2.3 mph - N/A   Clear
1:00 AM 35.6 °F - 35.6 °F 100% 30.32 in 0.5 mi West 2.3 mph - N/A   Clear
1:01 AM 35.6 °F - 35.6 °F 100% 30.30 in 0.4 mi Calm Calm - N/A   Clear
1:08 AM 35.6 °F - 35.6 °F 100% 30.30 in 0.8 mi Calm Calm - N/A   Clear
1:10 AM 35.6 °F - 35.6 °F 100% 30.30 in 1.8 mi Calm Calm - N/A   Clear
1:20 AM 33.8 °F - 33.8 °F 100% 30.29 in 9.0 mi Calm Calm - N/A   Clear
1:27 AM 35.6 °F - 35.6 °F 100% 30.29 in 2.5 mi Calm Calm - N/A   Clear
1:29 AM 35.6 °F - 35.6 °F 100% 30.29 in 1.4 mi Calm Calm - N/A   Clear
1:32 AM 33.8 °F - 33.8 °F 100% 30.29 in 1.0 mi Calm Calm - N/A   Clear
1:39 AM 35.6 °F - 35.6 °F 100% 30.28 in 1.5 mi SE 2.3 mph - N/A   Clear
1:43 AM 35.6 °F - 35.6 °F 100% 30.28 in 1.4 mi SE 2.3 mph - N/A   Clear
1:46 AM 35.6 °F - 35.6 °F 100% 30.28 in 0.8 mi Calm Calm - N/A   Clear
1:47 AM 33.8 °F - 33.8 °F 100% 30.28 in 0.6 mi Calm Calm - N/A   Clear
1:58 AM 33.8 °F 30.8 °F 33.8 °F 100% 30.27 in 4.0 mi ESE 3.5 mph - N/A   Clear
2:00 AM 33 °F - 33 °F 100% 30.29 in 9 mi ESE 2.3 mph - -  
2:00 AM 33.8 °F 30.8 °F 33.8 °F 100% 30.29 in 9.0 mi East 3.5 mph - N/A   Clear
3:00 AM 33.8 °F - 33.8 °F 100% 30.29 in 3.0 mi SSW 2.3 mph - N/A   Clear
3:50 AM 32.0 °F - 32.0 °F 100% 30.25 in 2.1 mi SSW 2.3 mph - N/A   Unknown
3:51 AM 32.0 °F - 32.0 °F 100% 30.25 in 1.4 mi Calm Calm - N/A   Unknown
3:53 AM 32.0 °F - 32.0 °F 100% 30.25 in 1.0 mi Calm Calm - N/A   Unknown
3:55 AM 32.0 °F - 32.0 °F 100% 30.25 in 0.6 mi Calm Calm - N/A   Unknown
4:00 AM 32.0 °F - 32.0 °F 100% 30.27 in 0.6 mi Calm Calm - N/A   Mostly Cloudy
4:10 AM 32.0 °F - 32.0 °F 100% 30.25 in 0.6 mi WSW 2.3 mph - N/A   Clear
4:38 AM 32.0 °F - 32.0 °F 100% 30.25 in 1.8 mi Calm Calm - N/A   Unknown
4:48 AM 32.0 °F - 32.0 °F 100% 30.25 in 9.0 mi South 2.3 mph - N/A   Unknown
5:00 AM 30.2 °F - 30.2 °F 100% 30.27 in 9.0 mi Calm Calm - N/A   Unknown
6:00 AM 30.2 °F - 30.2 °F 100% 30.26 in 9.0 mi Calm Calm - N/A   Clear
7:00 AM 30.2 °F 25.4 °F 30.2 °F 100% 30.27 in 9.0 mi West 4.6 mph - N/A   Clear
7:04 AM 30.2 °F 26.7 °F 30.2 °F 100% 30.24 in 9.0 mi West 3.5 mph - N/A   Mostly Cloudy
7:12 AM 30.2 °F - 30.2 °F 100% 30.24 in 9.0 mi Calm Calm - N/A   Partly Cloudy
7:50 AM 32.0 °F - 32.0 °F 100% 30.23 in 2.0 mi Calm Calm - N/A   Overcast
7:51 AM 32.0 °F - 32.0 °F 100% 30.23 in 1.2 mi Calm Calm - N/A   Overcast
7:53 AM 30.2 °F - 30.2 °F 100% 30.23 in 0.8 mi SW 2.3 mph - N/A   Unknown
7:54 AM 30.2 °F 26.7 °F 30.2 °F 100% 30.23 in 0.6 mi SW 3.5 mph - N/A   Unknown
8:00 AM 31 °F - 31 °F 100% 30.27 in 0 mi SW 2.3 mph - -  
8:00 AM 30.2 °F - 30.2 °F 100% 30.27 in 0.5 mi WSW 2.3 mph - N/A   Unknown
8:11 AM 32.0 °F - 32.0 °F 100% 30.23 in 1.1 mi Calm Calm - N/A   Unknown
8:15 AM 32.0 °F - 32.0 °F 100% 30.23 in 3.5 mi South 2.3 mph - N/A   Unknown
9:00 AM 39.2 °F - 39.2 °F 100% 30.25 in 9.0 mi Calm Calm - N/A   Unknown
10:00 AM 48.2 °F - 48.2 °F 100% 30.23 in 9.0 mi SSE 2.3 mph - N/A   Unknown
10:20 AM 48.2 °F - 48.2 °F 100% 30.21 in 9.0 mi SSW 4.6 mph - N/A   Overcast
11:00 AM 53.6 °F - 50.0 °F 88% 30.20 in 9.0 mi SE 4.6 mph - N/A   Overcast
12:00 PM 59.0 °F - 51.8 °F 77% 30.17 in 9.0 mi SSE 10.4 mph - N/A   Mostly Cloudy
12:38 PM 57.2 °F - 51.8 °F 82% 30.14 in 9.0 mi SSE 9.2 mph - N/A   Overcast
1:00 PM 59.0 °F - 51.8 °F 77% 30.15 in 9.0 mi SSE 8.1 mph - N/A   Overcast
2:00 PM 61 °F - 51 °F 62% 30.09 in 9 mi SSE 10.4 mph - -   Overcast
2:00 PM 60.8 °F - 51.8 °F 72% 30.09 in 9.0 mi SE 11.5 mph - N/A   Overcast
2:01 PM 60.8 °F - 51.8 °F 72% 30.07 in 9.0 mi SSE 11.5 mph - N/A   Overcast
3:00 PM 60.8 °F - 51.8 °F 72% 30.07 in 9.0 mi SE 11.5 mph - N/A   Mostly Cloudy
4:00 PM 62.6 °F - 51.8 °F 68% 30.06 in 9.0 mi SSE 8.1 mph - N/A   Overcast
5:00 PM 60.8 °F - 51.8 °F 72% 30.04 in 9.0 mi SSE 6.9 mph - N/A   Partly Cloudy
6:00 PM 59.0 °F - 51.8 °F 77% 30.02 in 9.0 mi SE 6.9 mph - N/A   Clear
7:00 PM 57.2 °F - 51.8 °F 82% 30.00 in 9.0 mi ESE 8.1 mph - N/A   Mostly Cloudy
8:00 PM 57 °F - 53 °F 80% 29.99 in 9 mi SSE 5.8 mph - -   Overcast
8:00 PM 57.2 °F - 51.8 °F 82% 29.99 in 9.0 mi SSE 5.8 mph - N/A   Overcast
9:00 PM 55.4 °F - 53.6 °F 94% 29.96 in 9.0 mi SE 4.6 mph - N/A   Mostly Cloudy
10:00 PM 53.6 °F - 53.6 °F 100% 29.94 in 9.0 mi SSE 4.6 mph - N/A   Partly Cloudy
11:00 PM 55.4 °F - 55.4 °F 100% 29.91 in 9.0 mi SSW 4.6 mph - N/A   Partly Cloudy